DB0NH-2 Weather Reports


Display with metric or nautical units.
time (UTC)temp
F
wind
direction
speed
MPH
gust
MPH
rain 1hr
in
rain 24hr
in
rain mn
in
humidity
%
barometer
mb
20260505035607 54 56 2.0 4.0 0.00 0.06 0.06 88 1009.7
20260505034607 55 54 2.0 4.0 0.00 0.06 0.06 86 1009.8
20260505033607 55 62 3.0 4.0 0.00 0.06 0.06 85 1009.9
20260505032607 55 74 3.0 4.0 0.00 0.06 0.06 84 1009.9
20260505031607 55 71 3.0 6.0 0.00 0.06 0.06 84 1010.0
20260505030607 56 65 3.0 6.0 0.00 0.06 0.06 82 1010.1
20260505025607 56 76 1.0 3.0 0.00 0.06 0.06 83 1010.3
20260505024607 56 98 0.0 3.0 0.00 0.06 0.06 83 1010.4
20260505023607 55 93 1.0 4.0 0.01 0.06 0.06 84 1010.5
20260505022607 55 63 3.0 6.0 0.05 0.06 0.06 84 1010.5
20260505021607 55 76 3.0 6.0 0.05 0.06 0.06 86 1010.5
20260505020607 56 69 2.0 4.0 0.05 0.06 0.06 84 1010.7
20260505015607 56 71 2.0 6.0 0.05 0.06 0.06 82 1010.7
20260505014607 56 134 3.0 4.0 0.06 0.06 0.06 80 1011.0
20260505013607 56 135 3.0 7.0 0.05 0.05 0.05 82 1011.2
20260505012607 56 159 1.0 1.0 0.01 0.01 0.01 77 1011.2
20260505011607 57 166 1.0 4.0 0.01 0.01 0.01 76 1011.4
20260505010607 57 58 2.0 3.0 0.01 0.01 0.01 72 1011.5
20260505005607 57 45 2.0 4.0 0.01 0.01 0.01 74 1011.6
20260505004607 57 49 4.0 7.0 0.00 0.00 0.00 74 1011.6
20260505003607 57 32 1.0 2.0 0.00 0.00 0.00 76 1011.7
20260505002607 57 32 2.0 3.0 0.00 0.00 0.00 74 1011.9
20260505001607 57 32 2.0 3.0 0.00 0.00 0.00 74 1011.9
20260505000607 57 34 2.0 4.0 0.00 0.00 0.00 74 1011.8
20260504235607 57 33 2.0 4.0 0.00 0.00 0.00 74 1011.8
20260504234607 57 40 3.0 6.0 0.00 0.00 0.00 74 1011.9
20260504233607 57 44 4.0 9.0 0.00 0.00 0.00 73 1011.7
20260504232607 57 37 4.0 8.0 0.00 0.00 0.00 73 1011.9
20260504231607 58 42 6.0 10.0 0.00 0.00 0.00 73 1012.0
20260504230607 57 42 6.0 10.0 0.00 0.00 0.00 73 1012.1
20260504225609 58 34 5.0 10.0 0.00 0.00 0.00 73 1012.2
20260504224607 58 44 7.0 11.0 0.00 0.00 0.00 73 1012.2
20260504223607 58 40 6.0 11.0 0.00 0.00 0.00 73 1012.4
20260504222607 58 40 7.0 10.0 0.00 0.00 0.00 71 1012.4
20260504221607 58 46 6.0 10.0 0.00 0.00 0.00 71 1012.4
20260504220607 58 32 4.0 9.0 0.00 0.00 0.00 70 1012.4
20260504215607 58 36 4.0 8.0 0.00 0.00 0.00 70 1012.4
20260504214607 59 33 4.0 7.0 0.00 0.00 0.00 69 1012.5
20260504213607 59 32 3.0 8.0 0.00 0.00 0.00 69 1012.7
20260504212607 59 40 3.0 8.0 0.00 0.00 0.00 68 1012.8
20260504211607 59 36 3.0 6.0 0.00 0.00 0.00 67 1012.8
20260504210607 59 30 2.0 6.0 0.00 0.00 0.00 68 1012.9
20260504205608 59 34 2.0 6.0 0.00 0.00 0.00 67 1012.9
20260504204608 59 31 2.0 4.0 0.00 0.00 0.00 67 1012.8
20260504203608 59 38 3.0 6.0 0.00 0.00 0.00 67 1012.8
20260504202608 60 32 4.0 7.0 0.00 0.00 0.00 67 1012.7
20260504201608 60 42 4.0 7.0 0.00 0.00 0.00 66 1012.6
20260504200608 60 36 3.0 6.0 0.00 0.00 0.00 66 1012.7
20260504195608 60 45 4.0 8.0 0.00 0.00 0.00 65 1012.6
20260504194608 60 33 3.0 6.0 0.00 0.00 0.00 65 1012.7
20260504193608 61 39 4.0 7.0 0.00 0.00 0.00 64 1012.5
20260504192608 61 41 4.0 9.0 0.00 0.00 0.00 62 1012.6
20260504191608 62 37 3.0 6.0 0.00 0.00 0.00 61 1012.6
20260504190608 63 32 2.0 4.0 0.00 0.00 0.00 58 1012.5
20260504185608 63 33 1.0 3.0 0.00 0.00 0.00 57 1012.6
20260504184608 62 19 0.0 1.0 0.00 0.00 0.00 59 1012.5
20260504183608 63 0.0 0.0 0.00 0.00 0.00 59 1012.5
20260504182608 63 0.0 0.0 0.00 0.00 0.00 59 1012.5
20260504181608 64 0.0 1.0 0.00 0.00 0.00 58 1012.6
20260504180608 64 0.0 1.0 0.00 0.00 0.00 56 1012.6
20260504175608 65 0.0 0.0 0.00 0.00 0.00 55 1012.5
20260504174608 65 0.0 1.0 0.00 0.00 0.00 55 1012.5
20260504173608 65 0.0 1.0 0.00 0.00 0.00 53 1012.5
20260504172608 65 327 1.0 2.0 0.00 0.00 0.00 52 1012.6
20260504171608 65 236 3.0 6.0 0.00 0.00 0.00 52 1012.5
20260504170608 65 225 5.0 8.0 0.00 0.00 0.00 50 1012.5
20260504150608 70 274 1.0 2.0 0.00 0.00 0.00 44 1013.0
20260504140608 71 250 0.0 2.0 0.00 0.00 0.00 44 1013.3
20260504130608 74 217 1.0 6.0 0.00 0.00 0.00 40 1013.7
20260504110607 72 295 0.0 2.0 0.00 0.00 0.00 41 1014.4
20260504100608 71 286 1.0 2.0 0.00 0.00 0.00 43 1014.9
20260504081607 66 316 1.0 3.0 0.00 0.00 0.00 46 1015.3
20260504080607 65 275 1.0 3.0 0.00 0.00 0.00 46 1015.2
20260504050607 54 231 1.0 2.0 0.00 0.00 0.00 67 1014.5
20260504045607 54 234 1.0 2.0 0.00 0.00 0.00 65 1014.6
20260504044607 54 230 1.0 2.0 0.00 0.00 0.00 65 1014.5
20260504043607 54 236 2.0 2.0 0.00 0.00 0.00 65 1014.6
20260504042607 54 236 1.0 2.0 0.00 0.00 0.00 65 1014.4
20260504041607 54 0.0 0.0 0.00 0.00 0.00 65 1014.4
20260504040607 54 237 0.0 2.0 0.00 0.00 0.00 65 1014.4